Showing default

ACS 3, 59588

Orbit data source: Space-Track

ACS 3, 59588 is a payload satellite owned by ARC (US) in SSO that was launched on Tue, 23 Apr 2024 UTC via an ELECTRON launch vehicle from the Rocket Lab Launch Complex (RLLC). Payload-class satellites include a variety of spacecraft equipped with specific instruments for various scientific and technological missions. These include communications satellites like Starlink; space stations such as the ISS; scientific satellites like the Hubble; Earth observation satellites from companies like Planet Labs, Umbra, and HawkEye 360; GPS; miniature CubeSats for education and research; and military/defense satellites.

Loading next visibility...
Identifier
59588, 2024-077B
Orbit
SSO
Country
Flag of USUS
Related business
Manufacturer
ARC/NANAVU
Mission
Operational Civil Technology
Bus & Motor
CUBESAT 12U, Unknown motor
Mass
16.1 kg wet, 16.1 kg dry
Launch date (UTC)
2024-04-23 (2 years ago)
Launch vehicle
ELECTRON
Launch site
Rocket Lab Launch Complex (RLLC)
Object type
Payload
Rocket body
Debris
Shape & HBR
Box + 1 Sail, 7.0 m
Radar Cross Section
0.080 m², Large (>1 m²)

Expand to show TLE details & history
Last TLE update: 5 hours ago

TLE from 5 hours ago
0 ACS 3
1 59588U 24077B   26254.64873055  .00020204  00000-0  13964-1 0  9994
2 59588  97.2146 154.5457 0082940 333.4559  26.2374 13.97389357120105
Epoch: 2026-09-11T15:34Z
TLE epoch observation values (Epoch: 2026-09-11T15:34:10.319Z)
Latitude
0.00006°
Longitude
-69.66637°
Altitude
851.698 km
Speed
7.454 km/s
True Right ascension
10h 18m 10s
True Declination
0° 00' 00"
Sunlit
Object was in daylight at epoch
Visualization orbit readout
Latitude
Unknown
Longitude
Unknown
Altitude
Unknown
Speed
Unknown
Apparent Right ascension
Unknown
Apparent Declination
Unknown
Sunlit
N/A
Visualization observer readout
Local Sidereal Time
13:07:51
Azimuth
Unknown
Elevation
Unknown
Doppler factor
Unknown
Orbital elements
Apogee altitude
960.338 km
Perigee altitude
839.608 km
Semi-major axis
7,278.11 km
Eccentricity
0.00829
Inclination
97.2146°
RAAN
154.5457°
Arg. of periapsis
333.4559°
True anomaly
26.66151°
Mean anomaly
26.2374°
Eccentric anomaly
26.44906°
Mean motion
3.49555 °/min
Orbital period
102.99 mins
BSTAR
0.013964
Loading maneuver chart data...
Computing Atmospheric mass density...
Loading historical data...
Loading historical data...
Loading historical data...
Loading historical data...
Loading historical data...
Loading historical data...
Loading historical data...
Other satellites on launch #77 in the year 2024 (2024-04-23 UTC)

Documentation

Showing up to 5 results
|